Ann Arbor, MI

12:53 PM EST on January 20, 2018 (GMT -0500)
Ann Arbor Municipal

Weather History for KARB - March, 2012

Change the Weather History Date:

Tuesday, March 27, 2012

  Actual Average Record
Temperature  
Mean Temperature 38 °F -  
Max Temperature 51 °F 47 °F 80 °F (2007)
Min Temperature 26 °F 27 °F 10 °F (2002)
Degree Days  
Heating Degree Days 26    
Moisture  
Dew Point 25 °F    
Average Humidity 55    
Maximum Humidity 75    
Minimum Humidity 41    
Precipitation  
Precipitation 0.00 in - - ()
Sea Level Pressure  
Sea Level Pressure 30.22 in    
Wind  
Wind Speed 6 mph (SE)    
Max Wind Speed 15 mph    
Max Gust Speed 21 mph    
Visibility 10 miles    
Events      
Averages and records for this station are not official NWS values.
T = Trace of Precipitation, MM = Missing Value Source: NWS Daily Summary

Daily Weather History Graph

Daily Weather History Graph

Search for Another Location

Airport or City:

Trip Planner

Search our weather history database for the weather conditions in past years. The results will help you decide how hot, cold, wet, or windy it might be!

Date:

Astronomy

Mar. 27, 2012 Rise Set
Actual Time 7:25 AM EDT 7:55 PM EDT
Civil Twilight 6:57 AM EDT 8:23 PM EDT
Nautical Twilight 6:24 AM EDT 8:57 PM EDT
Astronomical Twilight 5:50 AM EDT 9:31 PM EDT
Moon 9:49 AM EDT (3/27) 12:09 AM EDT (3/27)
Length of Visible Light 13h 26m
Length of Day
12h 30m
Waxing Crescent, 22% of the Moon is Illuminated
Mar 27
Waxing Crescent
Mar 30
First Quarter
Apr 6
Full
Apr 13
Last Quarter
Apr 21
New

Hourly Weather History & Observations

Time (EDT) Temp. Windchill Dew Point Humidity Pressure Visibility Wind Dir Wind Speed Gust Speed Precip Events Conditions
12:53 AM 32.0 °F 27.5 °F 17.1 °F 54% 30.40 in 10.0 mi ENE 4.6 mph - N/A   Clear
1:53 AM 30.0 °F 26.5 °F 17.1 °F 59% 30.40 in 10.0 mi ENE 3.5 mph - N/A   Clear
2:53 AM 28.9 °F 23.9 °F 17.1 °F 61% 30.39 in 10.0 mi East 4.6 mph - N/A   Clear
3:53 AM 28.0 °F - 19.0 °F 69% 30.39 in 10.0 mi Calm Calm - N/A   Clear
4:53 AM 26.1 °F - 19.0 °F 75% 30.38 in 10.0 mi Calm Calm - N/A   Clear
5:53 AM 28.0 °F 24.2 °F 18.0 °F 66% 30.36 in 10.0 mi ESE 3.5 mph - N/A   Clear
6:53 AM 28.9 °F 23.9 °F 14.0 °F 54% 30.37 in 10.0 mi East 4.6 mph - N/A   Clear
7:53 AM 28.9 °F 25.2 °F 17.1 °F 61% 30.38 in 10.0 mi East 3.5 mph - N/A   Clear
8:53 AM 32.0 °F 25.6 °F 19.9 °F 61% 30.36 in 10.0 mi SE 6.9 mph - N/A   Partly Cloudy
9:53 AM 36.0 °F 30.3 °F 24.1 °F 62% 30.37 in 10.0 mi SSE 6.9 mph - N/A   Clear
10:53 AM 37.9 °F 30.5 °F 27.0 °F 65% 30.34 in 10.0 mi SSE 11.5 mph - N/A   Overcast
11:53 AM 43.0 °F 36.8 °F 27.0 °F 53% 30.31 in 10.0 mi SSE 11.5 mph - N/A   Scattered Clouds
12:53 PM 45.0 °F 40.1 °F 26.1 °F 48% 30.30 in 10.0 mi SSE 9.2 mph - N/A   Clear
1:53 PM 46.9 °F - 24.1 °F 41% 30.27 in 10.0 mi SSE 9.2 mph - N/A   Partly Cloudy
2:53 PM 48.9 °F - 27.0 °F 43% 30.20 in 10.0 mi SSE 15.0 mph 20.7 mph N/A   Clear
3:53 PM 50.0 °F - 28.0 °F 43% 30.15 in 10.0 mi South 12.7 mph - N/A   Clear
4:53 PM 50.0 °F - 30.0 °F 46% 30.10 in 10.0 mi SSE 13.8 mph 19.6 mph N/A   Clear
5:53 PM 50.0 °F - 30.9 °F 48% 30.05 in 10.0 mi SSE 10.4 mph 19.6 mph N/A   Clear
6:53 PM 50.0 °F - 33.1 °F 52% 30.02 in 10.0 mi SSE 12.7 mph 18.4 mph N/A   Clear
7:53 PM 46.9 °F - 35.1 °F 63% 29.98 in 10.0 mi SSE 8.1 mph - N/A   Clear
8:53 PM 48.0 °F - 34.0 °F 58% 29.94 in 10.0 mi South 5.8 mph - N/A   Clear
9:53 PM 50.0 °F - 30.9 °F 48% 29.93 in 10.0 mi SSW 10.4 mph - N/A   Clear
10:53 PM 51.1 °F - 32.0 °F 48% 29.91 in 10.0 mi SSW 10.4 mph - N/A   Clear
11:53 PM 50.0 °F - 32.0 °F 50% 29.87 in 10.0 mi SSW 9.2 mph - N/A   Clear